www.pogodaiklimat.ru

Погода и климат >> Архив погоды >> Гана >> Koforidua


ПОГОДА в Koforidua

  • Прогноз погоды в Koforidua
  • Монитор погоды в Koforidua
  • Климат города

АРХИВ ПОГОДЫ в Koforidua

Время (UTC), дата Ветер
(напр.,м/с)
 
Видим.   Явления Облачность Т
(С)
Тd
(С)
f
(%)
Тe
(С)
Тes
(С)
Комфортность P
(гПа)
Po
(гПа)
Тmin
(С)
Tmax
(С)
R
(мм)
R24
(мм)
S
(см)
06 9.07 штиль 0 9000 м дымка 9/9 330 м
[Sc]
+23.8 +22.6 93 +31 +31 очень
душно
1015.0 1015.0 +22.9 7
09 9.07 ЮВ 1 16 км 9/9 360 м
[Cu Sc]
+26.1 +23.6 86 +35 +37 очень
душно
1016.9 1017.0
12 9.07 ЮЗ 1 16 км 8/6 360 м
[Cu Sc Ac trans]
+29.0 +25.0 79 +42 +48 опасность
перегрева
1015.3 1015.0
18 9.07 14 км в посл. час дождь н/о +27.6 +23.2 77 +37 +37 очень
душно
1013.6 1014.0 +30.5 0.2
00 10.07 штиль 0 14 км 3/3 360 м
[Sc]
+23.8 +22.4 92 +31 +31 очень
душно
1016.5 1017.0
03 10.07 З 1 14 км 9/9 330 м
[Sc]
+23.5 +22.1 92 +30 +30 очень
душно
1014.5 1015.0
06 10.07 Ю 1 12 км 9/9 360 м
[Sc]
+24.2 +22.8 92 +32 +32 очень
душно
1014.8 1015.0 +23.0 0.2
09 10.07 ЮЗ 1 14 км 6/6 360 м
[Sc]
+26.1 +23.2 84 +35 +40 очень
душно
1017.3 1017.0
12 10.07 ЮЗ 1 16 км 5/5 480 м
[Cu med, cong]
+30.6 +23.5 66 +41 +53 опасность
перегрева
1016.4 1016.0
15 10.07 ЮЗ 1 16 км гроза без осадков 8/8 360 м
[Cb cap]
+31.0 +24.2 67 +43 +46 опасность
перегрева
1013.7 1014.0
21 10.07 З 1 14 км зарница {гроза} 8/8 330 м
[Cb cap]
+24.4 +23.0 92 +32 +32 очень
душно
1016.6 1017.0
00 11.07 штиль 0 14 км {гроза} 9/9 330 м
[Sc]
+24.1 +22.5 91 +32 +32 очень
душно
1015.5 1016.0
03 11.07 З 1 14 км 9/9 330 м
[Sc]
+24.0 +22.6 92 +31 +31 очень
душно
1014.9 1015.0
06 11.07 штиль 0 9000 м дымка 9/9 330 м
[Sc]
+23.5 +22.5 94 +31 +31 очень
душно
1015.7 1016.0 +22.9 14
12 11.07 ЮЗ 1 16 км 5/5 480 м
[Cu med, cong]
+29.8 +24.0 71 +41 +53 опасность
перегрева
1015.8 1016.0
15 11.07 СЗ 2 16 км 8/8 360 м
[Cb cap]
+29.2 +23.4 71 +40 +42 очень
душно
1012.8 1013.0
18 11.07 ЮЗ 1 6000 м гроза, ливневой дождь 8/8 330 м
[Cb cap Ci fib]
+26.0 +22.9 83 +35 +35 очень
душно
1013.3 1013.0 +31.5 0.0
21 11.07 штиль 0 12 км {гроза, дождь} 4/4 360 м
[Sc]
+24.2 +22.5 90 +32 +32 очень
душно
1015.6 1016.0
00 12.07 штиль 0 12 км {морось, дождь} 9/9 330 м
[Sc]
+24.4 +23.0 92 +32 +32 очень
душно
1012.5 1013.0 2
03 12.07 штиль 0 12 км 9/9 330 м
[Sc]
+23.8 +22.6 93 +31 +31 очень
душно
1015.1 1015.0
06 12.07 штиль 0 9000 м дымка 8/6 330 м
[Sc Ac trans]
+23.9 +22.7 93 +31 +31 очень
душно
1015.6 1016.0 +23.0 2
21 12.07 ЮЗ 1 9000 м гроза, ливневой дождь 9/9 330 м
[Cb cap]
+24.5 +23.1 92 +33 +33 очень
душно
1016.5 1017.0
06 13.07 ЮЗ 1 9000 м дымка 9/9 330 м
[Sc]
+23.5 +22.3 93 +31 +31 очень
душно
1014.9 1015.0 +22.5 27
09 13.07 ЮЗ 1 16 км 9/6 330 м
[Sc Ac trans]
+26.0 +22.7 82 +34 +37 очень
душно
1016.5 1017.0
12 13.07 ЮЗ 1 16 км 8/6 360 м
[Cu Sc Ac trans]
+29.1 +23.5 72 +40 +46 очень
душно
1015.7 1016.0
15 13.07 ЮЗ 1 13 км 6/6 500 м
[Cb cap]
+30.0 +23.9 70 +41 +47 опасность
перегрева
1013.4 1013.0
18 13.07 Ю 1 17 км 8/8 360 м
[Cb cap]
+27.0 +23.5 81 +37 +37 очень
душно
1012.5 1013.0 +31.0
03 14.07 штиль 0 12 км 9/9 330 м
[Sc]
+24.0 +22.6 92 +31 +31 очень
душно
1014.7 1015.0
06 14.07 штиль 0 12 км {дождь} 9/9 330 м
[Sc]
+23.9 +22.7 93 +31 +31 очень
душно
1015.1 1015.0 +23.2 3
09 14.07 Ю 1 15 км 9/6 330 м
[Sc Ac trans]
+25.0 +22.9 88 +33 +36 очень
душно
1016.3 1016.0
12 14.07 Ю 1 17 км 8/4 480 м
[Cu med, cong Ac trans]
+28.3 +23.7 76 +39 +48 очень
душно
1015.2 1015.0
15 14.07 ЮЗ 1 17 км 8/6 360 м
[Cu Sc Ac trans]
+29.5 +23.7 71 +40 +44 очень
душно
1012.6 1013.0
18 14.07 ЮВ 1 16 км 8/6 360 м
[Sc Ac trans]
+27.6 +23.3 77 +37 +37 очень
душно
1012.4 1012.0 +29.5
21 14.07 ЮЗ 1 16 км 9/9 360 м
[Sc]
+25.4 +22.9 86 +34 +34 очень
душно
1015.6 1016.0
00 15.07 ЮЗ 1 12 км 9/9 330 м
[Sc]
+24.5 +22.8 90 +32 +32 очень
душно
1015.0 1015.0
03 15.07 ЮЗ 1 12 км 9/9 330 м
[Sc]
+24.0 +22.1 89 +31 +31 очень
душно
1013.9 1014.0
06 15.07 З 1 9000 м дымка 9/9 330 м
[Sc]
+24.0 +22.3 90 +31 +31 очень
душно
1014.4 1014.0 +23.4
09 15.07 ЮЗ 1 10 км 9/9 330 м
[Sc]
+25.8 +22.7 83 +34 +35 очень
душно
1015.2 1015.0
12 15.07 ЮЗ 2 16 км 9/9 360 м
[Cu Sc]
+27.6 +23.6 79 +38 +40 очень
душно
1015.5 1016.0
18 15.07 ЮЗ 1 18 км 8/8 360 м
[Sc]
+26.6 +22.5 78 +35 +35 очень
душно
1013.5 1014.0 +29.8
21 15.07 ЮЗ 1 13 км 8/8 360 м
[Sc]
+24.5 +21.8 85 +31 +31 очень
душно
1015.2 1015.0

 

Местоположение метеостанции Koforidua (Гана): широта 6.08 долгота -0.25 высота над уровнем моря 167 м.

В архиве по умолчанию представлена погода в Koforidua за последнюю неделю. Архивные данные за месяц целиком и за предыдущие месяцы, начиная с января 2011 года, Вы можете получить, выбрав интересующий диапазон дат из раскрывающегося списка и нажав кнопку "Ввод!".


*Определитесь, кто Вы:
робот инопланетянин человек

Внимание! Время в таблицах - всемирное. Для получения местного времени необходимо прибавить поправку, которая в Koforidua равна 1 ч.

Смотрите также архив погоды в соседних городах и на ближайших метеорологических станциях:

Погода в Akuse (Гана) (41 км)
Погода в Accra (Гана) (54 км)
Погода в Tema (Гана) (58 км)
Погода в Akim Oda (Гана) (82 км)
Погода в Abetifi (Гана) (86 км)
Погода в Ho (Гана) (98 км)
Погода в Ada (Гана) (103 км)
Погода в Akatsi (Гана) (116 км)
Погода в Saltpond (Гана) (133 км)
Погода в Kumasi (Гана) (165 км)

Пояснения к столбцам:

Ветер - указаны скорость ветра в м/с - средняя за 10 мин, порывы в срок и между сроками (в фигурных скобках) и направление, откуда дует ветер: С - северный, СВ - северо-восточный, В - восточный, ЮВ - юго-восточный, Ю - южный, ЮЗ - юго-западный, З - западный, СЗ - северо-западный.
Видимость - горизонтальная дальность видимости в метрах или километрах. При видимости от 1 до 10 км при отсутствии осадков обычно наблюдается дымка, при ухудшении видимости до 1 км и менее - туман. В сухую погоду видимость может ухудшаться дымом, пылью или мглою.
Явления - указаны атмосферные явления, наблюдавшиеся в срок или в последний час перед сроком; фигурными скобками обозначены явления, наблюдавшиеся между сроками (за 1-3 часа до срока); квадратными скобками обозначены град или гололедные отложения с указанием их диаметра в мм.
Облачность - указаны через наклонную черту общая и нижняя облачность в баллах и высота нижней границы облаков в метрах; квадратными скобками обозначены формы облаков: Ci - перистые, Cs - перисто-слоистые, Cc - перисто-кучевые, Ac - высококучевые, As - высокослоистые, Sc - слоисто-кучевые, Ns - слоисто-дождевые, Cu - кучевые, Cb - кучево-дождевые. Подробнее классификацию облаков см. в Атласе облаков (PDF).
T - Температура воздуха - температура, измеренная на высоте 2 м над землей.
Td - Температура точки росы - температура, при понижении до которой содержащийся в воздухе водяной пар достигнет насыщения.
f - Относительная влажность воздуха - влажноcть воздуха, измеренная на высоте 2 м над землей.
Te - Эффективная температура - температура, которую ощущает одетый по сезону человек в тени. Характеристика душности погоды. При расчете учитывается влияние влажности воздуха и скорости ветра на теплоощущения человека.
Tes - Эффективная температура на солнце - температура, которую ощущает человек, с поправкой на солнечный нагрев. Характеристика знойности погоды. Зависит от высоты солнца над горизонтом, облачности и скорости ветра. Ночью, в пасмурную погоду, а также при ветре 12 м/с и более поправка равна нулю.
P - Атмосферное давление - приведенное к уровню моря атмосферное давление.
Po - Атмосферное давление - измеренное на уровне метеостанции атмосферное давление.
Tmin - Минимальная температура - минимум температуры воздуха на высоте 2 м над землей.
Tmax - Максимальная температура - максимум температуры воздуха на высоте 2 м над землей.
R - Количество осадков - Количество выпавших осадков за период времени, мм. При наведении курсора мыши на число - период времени, за который выпало указанное количество осадков.
R24 - Количество осадков - Количество выпавших осадков за 24 часа, мм.
S - Снежный покров - Высота снежного покрова, см. При наведении курсора мыши на число - состояние снежного покрова и степень покрытия местности в баллах.